Regional Weather Roundup
Issued by NWS Newport/Morehead, NC

Current Version | Previous Version | Graphics & Text | Print | Product List | Glossary Off
Versions: 1 2 3 4 5 6 7 8 9 10 11 12 13 14 15 16 17 18 19 20 21 22 23 24 25 26 27 28 29 30 31 32 33 34 35 36 37 38 39 40 41 42 43 44 45 46 47 48 49 50

000
ASUS42 KMHX 231813
RWRMHX
WEATHER ROUNDUP FOR EASTERN NORTH CAROLINA
NATIONAL WEATHER SERVICE NEWPORT/MOREHEAD CITY NC
200 PM EDT MON OCT 23 2017

NOTE: "FAIR" INDICATES FEW OR NO CLOUDS BELOW 12,000 FEET
WITH NO SIGNIFICANT WEATHER AND/OR OBSTRUCTIONS TO VISIBILITY

NCZ015>017-031-032-045>047-102-103-231900-
NORTH COAST

CITY           SKY/WX    TMP DP  RH WIND       PRES   REMARKS
EDENTON        CLOUDY    81  66  60 S14G21    30.08F
ELIZABETH CITY PTSUNNY   79  66  64 SE14      30.09F
KITTY HAWK     CLOUDY    76  64  65 SE6       30.11F
MANTEO         CLOUDY   N/A N/A N/A S14       30.11F

$$

NCZ045>047-081-094-103-104-231900-
CENTRAL COAST

CITY           SKY/WX    TMP DP  RH WIND       PRES   REMARKS
FRISCO         PTSUNNY   82  67  60 S15G24    30.11F

$$

NCZ095-097-098-100-101-231900-
SOUTHERN COAST

CITY           SKY/WX    TMP DP  RH WIND       PRES   REMARKS
BEAUFORT       PTSUNNY   77  68  73 S10       30.09F
CEDAR ISLAND   NOT AVBL
JACKSONVILLE   MOSUNNY   80  66  62 S17G25    30.06F
PINEY ISLAND     N/A    N/A N/A N/A S14G22    30.08F
WILMINGTON     PTSUNNY   78  64  61 SE8G20    30.05F


$$

NCZ011>013-027>030-043-044-078>080-089-090>093-098-231900-
COASTAL PLAIN

CITY           SKY/WX    TMP DP  RH WIND       PRES   REMARKS
AHOSKIE        CLOUDY    77  63  62 SE8       30.07F
CLINTON        PTSUNNY   79  65  64 SE6       30.04F
ELIZABETHTOWN  NOT AVBL
GOLDSBORO      MOSUNNY   81  60  48 S15G24    30.03F
GREENVILLE     CLOUDY    81  63  54 S13G22    30.07F
HAVELOCK       CLOUDY    78  69  73 S18       30.09F
KENANSVILLE    PTSUNNY   79  63  57 S16G25    30.05F
KINSTON        CLOUDY    81  61  50 SE16G24   30.05F
NEW BERN       CLOUDY    78  67  68 S13       30.08F
RICHLANDS      CLOUDY    80  67  64 SE10G29   30.06F
ROCKY MOUNT    MOSUNNY   81  58  45 SE13G29   30.04F
WASHINGTON     CLOUDY    79  66  65 SE9       30.08F
WHITEVILLE     PTSUNNY   78  65  66 SE12G20   30.03F

$$

AMZ130-135-150-152-154-156-158-170-250-252-270-ANZ085-086-088-633-658-670-231900-
MARINE OBSERVATIONS

STATION/POSITION TIME  TEMP    WIND        PRES    WAVE   SWELL
                       AIR SEA DIR/SP/G            HT/PER HT/PER
                 (UTC) (F)     (DEG/KT/KT) (MB)    (FT/S) (FT/S)
CHESAPEAKE LIGHT NOT AVBL
64 E VA BEACH    1750   73 69  160/ 12/ 14 1020.8    4/ 6   2/ 9
DUCK             1736   74 70  120/ 12/ 13 1019.4
2 E DUCK         1800      71                N/A     2/ 9
OREGON INLET     1736   76 71  120/  8/ 13 1019.8
13E OREGON INLT  1748      72                N/A     3/ 8   3/ 8
HATTERAS CG      1736   78 73  160/ 16/ 19 1019.4
DIAMOND BUOY     1750   78 81  160/ 21/ 25 1019.1    5/ 5   2/ 9
CAPE LOOKOUT     1800   76     160/ 12/ 13 1018.5
BEAUFORT LAB     1736   76 73  170/ 10/ 13 1019.2
30 SE NEW RVR IN 1708   77     180/ 16/ 19 1019.0
30 SE NEW RVR IN NOT AVBL
27 SE WRIGHTSVLE 1708   77 76  150/ 14/ 19 1018.7
5 SE WRIGHTSVLE  1708   76 74  160/ 14/ 19 1018.5
225 S CAPE HAT   1750   78 80  130/ 16/ 19 1019.7    5/ 5   2/ 9
41 SE CHARLESTON 1800   80 80  160/ 21/ 27 1015.1

$$




USA.gov is the U.S. government's official web portal to all federal, state and local government web resources and services.